Home > Weather > Toronto > Past weeks

Flag for Canada Weather for the Past 2 Weeks in Toronto, Ontario, Canada

Now
36 °F

Passing clouds.


Feels Like: 27 °F
Forecast: N/A
Wind: 14 mph from Southwest

Location: Toronto Pearson International Airport

Current Time: Feb 6, 2016 at 6:49:09 PM

Latest Report: Feb 6, 2016 at 6:00 PM


Visibility: 15 mi

Pressure: 30.15 "Hg

Humidity: 48%

Dew point: 18 °F

Location of TorontoLocation

Historic Weather in Toronto — Graph

°F

Toronto Temperature Yesterday

Maximum temperature yesterday: 37 °F (at 1:00 PM)
Minimum temperature yesterday: 27 °F (at 6:00 AM)
Average temperature yesterday: 31 °F

High & Low Weather Summary for the Past Weeks

 TemperatureHumidityPressure
High61 °F (Feb 3, 2:00 PM)100% (Feb 3, 7:00 AM)30.36 "Hg (Feb 3, 7:00 AM)
Low12 °F (Jan 23, 7:00 AM)39% (Feb 3, 4:00 PM)29.44 "Hg (Jan 31, 11:00 PM)
Average32 °F70%29.94 "Hg
* Reported Jan 22 5:01 PM — Feb 6 5:00 PM, Toronto, Weather by CustomWeather, © 2016

Note: Actual official high and low records may vary slightly from our data, if they occured in-between our weather recording intervals... More about our weather records

Advertising

Toronto Weather History for the Previous 24 Hours

 ConditionsComfort  
Time TempWeatherWind HumidityBarometerVisibility
5:00 PM
Sat, Feb 6
36 °FScattered clouds.18 mph44%30.14 "Hg15 mi
4:00 PM36 °FPartly sunny.23 mph44%30.14 "Hg15 mi
3:00 PM37 °FScattered clouds.24 mph45%30.14 "Hg15 mi
2:00 PM37 °FPartly sunny.21 mph45%30.15 "Hg15 mi
1:00 PM37 °FPartly sunny.17 mph48%30.18 "Hg15 mi
12:00 PM36 °FPartly sunny.16 mph52%30.20 "Hg15 mi
11:00 AM34 °FBroken clouds.14 mph65%30.22 "Hg15 mi
10:00 AM34 °FMostly cloudy.20 mph65%30.22 "Hg15 mi
9:00 AM32 °FScattered clouds.9 mph75%30.23 "Hg12 mi
8:00 AM28 °FPassing clouds.7 mph86%30.22 "Hg12 mi
7:00 AM30 °FSnow flurries. Mostly cloudy.8 mph80%30.20 "Hg12 mi
6:00 AM30 °FSnow flurries. Mostly cloudy.5 mph80%30.20 "Hg15 mi
5:00 AM30 °FOvercast.5 mph75%30.19 "Hg15 mi
4:00 AM30 °FSnow flurries. Overcast.6 mph75%30.21 "Hg15 mi
3:00 AM30 °FOvercast.12 mph75%30.23 "Hg15 mi
2:00 AM30 °FOvercast.9 mph75%30.23 "Hg15 mi
1:00 AM30 °FPassing clouds.10 mph75%30.24 "Hg15 mi
12:00 AM30 °FPassing clouds.12 mph75%30.26 "Hg15 mi
11:00 PM
Fri, Feb 5
30 °FPassing clouds.12 mph69%30.28 "Hg15 mi
10:00 PM30 °FPassing clouds.7 mph69%30.29 "Hg15 mi
9:00 PM30 °FPartly cloudy.8 mph69%30.31 "Hg15 mi
8:00 PM32 °FPassing clouds.14 mph60%30.32 "Hg15 mi
7:00 PM32 °FPartly cloudy.9 mph60%30.33 "Hg15 mi
6:00 PM32 °FPartly cloudy.10 mph55%30.32 "Hg15 mi
Weather by CustomWeather, © 2016

See weather overviewHow to use our weather pages